Location: Cahas Mountain Overlook
(37.0833°N, 80.1000°W)
Time: 11:31:23
(UTC-05:00)

SR - Pass Details

Date: 14 December 2023
Orbit: 574 x 867 km, 66.7° (Epoch: 29 February)

Event Time Altitude Azimuth Distance (km) Brightness Sun altitude
Rises 10:44:06 0° 253° (WSW) 3,309 ? 26.0°
Reaches altitude 10° 10:47:19 10° 273° (W) 2,427 ? 26.3°
Maximum altitude 10:51:03 18° 314° (NW) 1,977 ? 26.5°
Drops below altitude 10° 10:54:53 10° 356° (N) 2,504 ? 26.8°
Sets 10:58:17 0° 15° (NNE) 3,456 ? 27.0°
